AUA211 UKLL-LOWW

Flight info

Callsign AUA211
Flight time N/A
Altitude 36000
Route KOKUP Q560 VI P27 MALBE DCT REKLU REKLU3W
Aircraft A320/M-SDE3FGHIRWY/LB1

Departure

Time 2026-04-28 12:10
Airport Lviv International Airport (UKLL)

Arrival

Time N/A
Airport Vienna International Airport (LOWW)
Time Latitude Longitude Altitude Speed Heading
2026-04-28 11:42 49.81291 23.95876 1067 ft 0 kts 46°
2026-04-28 12:03 49.81287 23.95870 1071 ft 4 kts 47°
2026-04-28 12:03 49.81269 23.95839 1073 ft 4 kts 54°
2026-04-28 12:03 49.81256 23.95803 1066 ft 4 kts 71°
2026-04-28 12:03 49.81253 23.95766 1065 ft 4 kts 119°
2026-04-28 12:04 49.81259 23.95753 1066 ft 1 kts 136°
2026-04-28 12:04 49.81260 23.95752 1066 ft 0 kts 136°
2026-04-28 12:05 49.81250 23.95766 1065 ft 7 kts 136°
2026-04-28 12:06 49.81180 23.95870 1065 ft 20 kts 136°
2026-04-28 12:06 49.81089 23.96007 1065 ft 14 kts 142°
2026-04-28 12:06 49.81004 23.96035 1067 ft 12 kts 182°
2026-04-28 12:06 49.80901 23.96031 1065 ft 14 kts 180°
2026-04-28 12:07 49.80813 23.96081 1064 ft 13 kts 137°
2026-04-28 12:07 49.80742 23.96186 1065 ft 16 kts 136°
2026-04-28 12:07 49.80649 23.96325 1065 ft 21 kts 136°
2026-04-28 12:07 49.80535 23.96497 1064 ft 24 kts 136°
2026-04-28 12:08 49.80416 23.96675 1064 ft 24 kts 136°
2026-04-28 12:08 49.80293 23.96860 1063 ft 25 kts 136°
2026-04-28 12:08 49.80168 23.97048 1064 ft 25 kts 136°
2026-04-28 12:08 49.80043 23.97235 1065 ft 22 kts 136°
2026-04-28 12:09 49.79995 23.97354 1067 ft 11 kts 91°
2026-04-28 12:09 49.79982 23.97415 1066 ft 9 kts 131°
2026-04-28 12:09 49.79925 23.97425 1065 ft 6 kts 257°
2026-04-28 12:09 49.79953 23.97372 1065 ft 10 kts 314°
2026-04-28 12:10 49.80161 23.97058 1064 ft 76 kts 316°
2026-04-28 12:10 49.80693 23.96260 1065 ft 134 kts 316°
2026-04-28 12:10 49.81446 23.95140 1374 ft 151 kts 318°
2026-04-28 12:10 49.81954 23.94419 1911 ft 148 kts 318°
2026-04-28 12:11 49.82731 23.93332 2577 ft 157 kts 319°
2026-04-28 12:11 49.83599 23.92120 2929 ft 179 kts 319°
2026-04-28 12:11 49.84584 23.90735 3256 ft 205 kts 318°
2026-04-28 12:11 49.85696 23.89161 3664 ft 228 kts 319°
2026-04-28 12:12 49.87333 23.86834 4507 ft 248 kts 318°
2026-04-28 12:12 49.88610 23.85013 5456 ft 251 kts 318°
2026-04-28 12:12 49.89471 23.83754 6056 ft 254 kts 314°
2026-04-28 12:12 49.90307 23.81329 6915 ft 263 kts 281°
2026-04-28 12:13 49.90112 23.78531 7716 ft 273 kts 251°
2026-04-28 12:13 49.89163 23.75944 8613 ft 279 kts 238°
2026-04-28 12:13 49.87947 23.73572 9523 ft 283 kts 234°
2026-04-28 12:13 49.86660 23.71243 10324 ft 288 kts 234°
2026-04-28 12:14 49.85080 23.69102 10580 ft 319 kts 216°
2026-04-28 12:14 49.82942 23.67713 10762 ft 350 kts 197°
2026-04-28 12:14 49.80425 23.67429 10942 ft 377 kts 175°
2026-04-28 12:14 49.77865 23.68387 11434 ft 388 kts 167°
2026-04-28 12:15 49.75200 23.69088 12070 ft 390 kts 179°
2026-04-28 12:15 49.72490 23.68962 12707 ft 391 kts 188°
2026-04-28 12:15 49.69770 23.68596 13372 ft 394 kts 189°
2026-04-28 12:15 49.67032 23.68138 14017 ft 397 kts 191°
2026-04-28 12:16 49.64274 23.67624 14593 ft 401 kts 192°
2026-04-28 12:16 49.61494 23.67085 15185 ft 404 kts 192°
2026-04-28 12:16 49.58697 23.66545 15766 ft 408 kts 192°
2026-04-28 12:16 49.55878 23.65969 16338 ft 409 kts 195°
2026-04-28 12:17 49.53143 23.64835 16916 ft 406 kts 205°
2026-04-28 12:17 49.50618 23.63056 17487 ft 404 kts 215°
2026-04-28 12:17 49.48275 23.60696 18063 ft 403 kts 220°
2026-04-28 12:17 49.45956 23.58238 18605 ft 406 kts 220°
2026-04-28 12:18 49.43614 23.55771 19086 ft 409 kts 220°
2026-04-28 12:18 49.41254 23.53296 19571 ft 412 kts 220°
2026-04-28 12:18 49.38879 23.50808 20038 ft 414 kts 220°
2026-04-28 12:18 49.36489 23.48308 20472 ft 417 kts 219°
2026-04-28 12:19 49.34087 23.45798 20915 ft 420 kts 219°
2026-04-28 12:19 49.31668 23.43267 21352 ft 422 kts 219°
2026-04-28 12:19 49.29268 23.40756 21780 ft 424 kts 220°
2026-04-28 12:19 49.26823 23.38202 22188 ft 427 kts 220°
2026-04-28 12:20 49.24364 23.35637 22579 ft 429 kts 220°
2026-04-28 12:20 49.21892 23.33062 22992 ft 431 kts 220°
2026-04-28 12:20 49.19408 23.30476 23394 ft 433 kts 220°
2026-04-28 12:20 49.16908 23.27885 23740 ft 435 kts 220°
2026-04-28 12:21 49.14396 23.25284 24051 ft 437 kts 220°
2026-04-28 12:21 49.11873 23.22675 24405 ft 439 kts 220°
2026-04-28 12:21 49.09341 23.20063 24742 ft 440 kts 220°
2026-04-28 12:21 49.06833 23.17480 25051 ft 442 kts 220°
2026-04-28 12:22 49.04286 23.14865 25345 ft 443 kts 220°
2026-04-28 12:22 49.01721 23.12243 25638 ft 445 kts 220°
2026-04-28 12:22 48.99162 23.09594 25925 ft 444 kts 223°
2026-04-28 12:22 48.96859 23.06530 26166 ft 437 kts 232°
2026-04-28 12:23 48.94956 23.02977 26437 ft 430 kts 242°
2026-04-28 12:23 48.93475 22.99059 26691 ft 425 kts 250°
2026-04-28 12:23 48.92436 22.94886 26925 ft 420 kts 259°
2026-04-28 12:23 48.91700 22.90593 27166 ft 420 kts 260°
2026-04-28 12:24 48.90978 22.86353 27452 ft 419 kts 260°
2026-04-28 12:24 48.90240 22.82074 27814 ft 417 kts 260°
2026-04-28 12:24 48.89499 22.77817 28176 ft 416 kts 260°
2026-04-28 12:24 48.88761 22.73593 28556 ft 413 kts 260°
2026-04-28 12:25 48.88023 22.69373 28911 ft 412 kts 260°
2026-04-28 12:25 48.87288 22.65180 29265 ft 410 kts 260°
2026-04-28 12:25 48.86553 22.61013 29621 ft 409 kts 260°
2026-04-28 12:25 48.85817 22.56852 29997 ft 407 kts 260°
2026-04-28 12:26 48.85082 22.52711 30353 ft 405 kts 260°
2026-04-28 12:26 48.84360 22.48640 30638 ft 404 kts 260°
2026-04-28 12:26 48.83630 22.44525 30923 ft 403 kts 260°
2026-04-28 12:26 48.82902 22.40419 31211 ft 402 kts 261°
2026-04-28 12:27 48.82394 22.36281 31481 ft 396 kts 269°
2026-04-28 12:27 48.82270 22.32125 31772 ft 393 kts 272°
2026-04-28 12:27 48.82189 22.27978 32067 ft 393 kts 272°
2026-04-28 12:27 48.82109 22.23898 32356 ft 392 kts 272°
2026-04-28 12:28 48.82025 22.19778 32636 ft 391 kts 272°
2026-04-28 12:28 48.81940 22.15654 32918 ft 391 kts 272°
2026-04-28 12:28 48.81852 22.11536 33206 ft 390 kts 272°
2026-04-28 12:28 48.81759 22.07425 33484 ft 389 kts 272°
2026-04-28 12:29 48.81567 21.99224 34025 ft 388 kts 272°
2026-04-28 12:29 48.81471 21.95127 34169 ft 389 kts 272°
2026-04-28 12:30 48.81279 21.86868 34200 ft 393 kts 272°
2026-04-28 12:30 48.81074 21.78635 34203 ft 393 kts 271°
2026-04-28 12:31 48.80866 21.70343 34197 ft 393 kts 271°
2026-04-28 12:31 48.80648 21.62073 34195 ft 392 kts 271°
2026-04-28 12:32 48.80424 21.53824 34195 ft 391 kts 271°
2026-04-28 12:32 48.80203 21.45627 34196 ft 391 kts 271°
2026-04-28 12:33 48.79977 21.37377 34190 ft 391 kts 271°
2026-04-28 12:33 48.79742 21.29128 34191 ft 391 kts 271°
2026-04-28 12:34 48.79495 21.20878 34187 ft 391 kts 271°
2026-04-28 12:34 48.79241 21.12691 34189 ft 392 kts 271°
2026-04-28 12:35 48.78983 21.04440 34193 ft 392 kts 271°
2026-04-28 12:35 48.78725 20.96197 34166 ft 391 kts 271°
2026-04-28 12:36 48.78460 20.87949 34163 ft 392 kts 271°
2026-04-28 12:36 48.78185 20.79690 34152 ft 392 kts 270°
2026-04-28 12:37 48.77903 20.71436 34146 ft 393 kts 270°
2026-04-28 12:37 48.77623 20.63221 34145 ft 393 kts 270°
2026-04-28 12:38 48.77338 20.54953 34125 ft 392 kts 270°
2026-04-28 12:38 48.77040 20.46691 34111 ft 393 kts 270°
2026-04-28 12:39 48.76733 20.38471 34115 ft 394 kts 270°
2026-04-28 12:39 48.76421 20.30179 34122 ft 394 kts 270°
2026-04-28 12:40 48.76101 20.21890 34124 ft 395 kts 270°
2026-04-28 12:40 48.75774 20.13583 34127 ft 395 kts 270°
2026-04-28 12:41 48.75450 20.05330 34118 ft 395 kts 270°
2026-04-28 12:41 48.75119 19.97027 34108 ft 395 kts 269°
2026-04-28 12:42 48.74780 19.88721 34116 ft 395 kts 269°
2026-04-28 12:42 48.74432 19.80416 34118 ft 395 kts 269°
2026-04-28 12:43 48.74077 19.72106 34117 ft 395 kts 269°
2026-04-28 12:43 48.73721 19.63853 34123 ft 395 kts 269°
2026-04-28 12:44 48.73356 19.55546 34104 ft 395 kts 269°
2026-04-28 12:44 48.72978 19.47233 34106 ft 396 kts 269°
2026-04-28 12:45 48.72600 19.38920 34112 ft 396 kts 269°
2026-04-28 12:45 48.72217 19.30647 34120 ft 396 kts 269°
2026-04-28 12:46 48.71834 19.22315 34127 ft 396 kts 269°
2026-04-28 12:46 48.71444 19.13996 34130 ft 397 kts 269°
2026-04-28 12:47 48.71041 19.05668 34130 ft 397 kts 269°
2026-04-28 12:47 48.70632 18.97335 34115 ft 397 kts 269°
2026-04-28 12:48 48.70211 18.88992 34124 ft 397 kts 268°
2026-04-28 12:48 48.69792 18.80713 34126 ft 398 kts 268°
2026-04-28 12:49 48.69363 18.72366 34135 ft 398 kts 268°
2026-04-28 12:49 48.68926 18.64023 34139 ft 398 kts 268°
2026-04-28 12:50 48.68488 18.55732 34146 ft 398 kts 268°
2026-04-28 12:50 48.68050 18.47402 34126 ft 397 kts 268°
2026-04-28 12:51 48.67602 18.39075 34134 ft 397 kts 268°
2026-04-28 12:51 48.67144 18.30757 34150 ft 397 kts 268°
2026-04-28 12:52 48.66680 18.22498 34152 ft 396 kts 268°
2026-04-28 12:52 48.66209 18.14187 34158 ft 396 kts 268°
2026-04-28 12:53 48.65738 18.05876 34154 ft 397 kts 268°
2026-04-28 12:53 48.65256 17.97568 34146 ft 397 kts 268°
2026-04-28 12:53 48.65013 17.93422 33687 ft 395 kts 268°
2026-04-28 12:54 48.64773 17.89324 32708 ft 398 kts 268°
2026-04-28 12:54 48.64528 17.85127 31660 ft 403 kts 268°
2026-04-28 12:54 48.64280 17.80878 30606 ft 408 kts 268°
2026-04-28 12:54 48.64025 17.76570 29418 ft 414 kts 268°
2026-04-28 12:55 48.63765 17.72223 28170 ft 418 kts 267°
2026-04-28 12:55 48.63498 17.67816 26903 ft 423 kts 267°
2026-04-28 12:55 48.63227 17.63367 25658 ft 427 kts 267°
2026-04-28 12:55 48.62951 17.58873 24372 ft 431 kts 267°
2026-04-28 12:56 48.62672 17.54345 23280 ft 431 kts 267°
2026-04-28 12:56 48.62394 17.49909 22320 ft 427 kts 267°
2026-04-28 12:56 48.62113 17.45472 21415 ft 423 kts 267°
2026-04-28 12:56 48.61833 17.41066 20582 ft 419 kts 267°
2026-04-28 12:57 48.61556 17.36698 19781 ft 416 kts 267°
2026-04-28 12:57 48.61282 17.32368 19013 ft 412 kts 267°
2026-04-28 12:57 48.61008 17.28072 18247 ft 409 kts 266°
2026-04-28 12:57 48.60734 17.23809 17442 ft 406 kts 266°
2026-04-28 12:58 48.60464 17.19638 16700 ft 403 kts 266°
2026-04-28 12:58 48.60188 17.15446 15991 ft 399 kts 266°
2026-04-28 12:58 48.59913 17.11292 15296 ft 396 kts 266°
2026-04-28 12:58 48.59641 17.07169 14618 ft 393 kts 266°
2026-04-28 12:59 48.59371 17.03087 14055 ft 388 kts 266°
2026-04-28 12:59 48.59104 16.99113 13923 ft 372 kts 266°
2026-04-28 12:59 48.58845 16.95306 13784 ft 357 kts 266°
2026-04-28 12:59 48.58603 16.91654 13645 ft 342 kts 267°
2026-04-28 13:00 48.58404 16.88144 13510 ft 329 kts 268°
2026-04-28 13:00 48.58188 16.84801 13256 ft 322 kts 263°
2026-04-28 13:00 48.57573 16.81561 12836 ft 322 kts 250°
2026-04-28 13:00 48.56468 16.78613 12382 ft 325 kts 236°
2026-04-28 13:01 48.54917 16.76126 11913 ft 327 kts 223°
2026-04-28 13:01 48.53007 16.74243 11458 ft 330 kts 209°
2026-04-28 13:01 48.50862 16.73092 11231 ft 325 kts 195°
2026-04-28 13:01 48.48653 16.72696 11097 ft 316 kts 182°
2026-04-28 13:02 48.46496 16.73020 10971 ft 308 kts 171°
2026-04-28 13:02 48.44417 16.73668 10729 ft 303 kts 169°
2026-04-28 13:02 48.42404 16.74393 10440 ft 300 kts 168°
2026-04-28 13:02 48.40386 16.75157 10113 ft 298 kts 167°
2026-04-28 13:03 48.38398 16.75914 9919 ft 290 kts 167°
2026-04-28 13:03 48.36473 16.76642 9771 ft 280 kts 167°
2026-04-28 13:03 48.34607 16.77339 9582 ft 273 kts 167°
2026-04-28 13:03 48.32784 16.78009 9390 ft 266 kts 168°
2026-04-28 13:04 48.31011 16.78656 9177 ft 260 kts 168°
2026-04-28 13:04 48.29263 16.79292 8858 ft 257 kts 167°
2026-04-28 13:04 48.27505 16.79651 8518 ft 254 kts 181°
2026-04-28 13:04 48.25762 16.79429 8186 ft 250 kts 193°
2026-04-28 13:05 48.24156 16.78619 7846 ft 245 kts 216°
2026-04-28 13:05 48.23002 16.76827 7489 ft 238 kts 245°
2026-04-28 13:05 48.22556 16.74479 7139 ft 235 kts 265°
2026-04-28 13:05 48.22449 16.72035 6779 ft 234 kts 275°
2026-04-28 13:06 48.22842 16.69707 6438 ft 230 kts 298°
2026-04-28 13:06 48.23872 16.67895 6047 ft 230 kts 326°
2026-04-28 13:06 48.25311 16.66863 5630 ft 232 kts 339°
2026-04-28 13:06 48.26817 16.65990 5256 ft 232 kts 340°
2026-04-28 13:07 48.28305 16.65133 4924 ft 233 kts 341°
2026-04-28 13:07 48.29815 16.64265 4631 ft 229 kts 341°
2026-04-28 13:07 48.31291 16.63410 4854 ft 232 kts 340°
2026-04-28 13:07 48.32805 16.62534 4984 ft 233 kts 340°
2026-04-28 13:08 48.34320 16.61657 5010 ft 233 kts 340°
2026-04-28 13:08 48.35829 16.60780 5013 ft 233 kts 341°
2026-04-28 13:08 48.37369 16.60050 5015 ft 231 kts 341°